| time (UTC) | temp F | wind direction | speed MPH | gust MPH | rain 1hr in | rain 24hr in | rain mn in | humidity % | barometer mb |
| 20260905214003 | 73 | 283 | 2.0 | 5.0 | 0.00 | 0.01 | 0.01 | 71 | 1011.1 |
| 20260905213503 | 73 | 343 | 2.0 | 4.0 | 0.00 | 0.01 | 0.01 | 71 | 1011.0 |
| 20260905213006 | 72 | 340 | 2.0 | 4.0 | 0.00 | 0.01 | 0.01 | 71 | 1011.0 |
| 20260905212503 | 72 | 300 | 0.0 | 2.0 | 0.00 | 0.01 | 0.01 | 75 | 1011.0 |
| 20260905212003 | 72 | 297 | 0.0 | 0.0 | 0.00 | 0.01 | 0.01 | 76 | 1011.0 |
| 20260905211504 | 72 | 15 | 0.0 | 0.0 | 0.00 | 0.01 | 0.01 | 74 | 1010.9 |
| 20260905211003 | 72 | 99 | 0.0 | 1.0 | 0.00 | 0.01 | 0.01 | 72 | 1010.9 |
| 20260905210503 | 73 | 99 | 0.0 | 1.0 | 0.00 | 0.01 | 0.01 | 72 | 1010.9 |
| 20260905210005 | 73 | 122 | 0.0 | 2.0 | 0.00 | 0.01 | 0.01 | 71 | 1010.8 |
| 20260905205503 | 73 | 86 | 0.0 | 2.0 | 0.00 | 0.01 | 0.01 | 69 | 1010.8 |
| 20260905205005 | 73 | 338 | 0.0 | 1.0 | 0.00 | 0.01 | 0.01 | 71 | 1010.8 |
| 20260905204508 | 73 | 28 | 0.0 | 2.0 | 0.00 | 0.01 | 0.01 | 71 | 1010.8 |
| 20260905204006 | 73 | 19 | 0.0 | 5.0 | 0.00 | 0.01 | 0.01 | 71 | 1010.8 |
| 20260905203504 | 73 | 99 | 0.0 | 6.0 | 0.00 | 0.01 | 0.01 | 70 | 1010.7 |
| 20260905203012 | 73 | 84 | 2.0 | 8.0 | 0.00 | 0.01 | 0.01 | 69 | 1010.7 |
| 20260905202503 | 74 | 92 | 2.0 | 10.0 | 0.00 | 0.01 | 0.01 | 68 | 1010.7 |
| 20260905202004 | 75 | 88 | 2.0 | 10.0 | 0.00 | 0.01 | 0.01 | 66 | 1010.6 |
| 20260905201512 | 76 | 110 | 2.0 | 9.0 | 0.00 | 0.01 | 0.01 | 66 | 1010.6 |
| 20260905201002 | 76 | 49 | 4.0 | 9.0 | 0.00 | 0.01 | 0.01 | 63 | 1010.5 |
| 20260905200502 | 77 | 360 | 5.0 | 9.0 | 0.00 | 0.01 | 0.01 | 61 | 1010.3 |
| 20260905200007 | 77 | 347 | 2.0 | 11.0 | 0.00 | 0.01 | 0.01 | 62 | 1010.2 |
| 20260905195503 | 77 | 313 | 4.0 | 13.0 | 0.00 | 0.01 | 0.01 | 61 | 1010.3 |
| 20260905195006 | 77 | 342 | 3.0 | 13.0 | 0.00 | 0.01 | 0.01 | 63 | 1010.3 |
| 20260905194508 | 77 | 316 | 5.0 | 11.0 | 0.00 | 0.01 | 0.01 | 61 | 1010.3 |
| 20260905194004 | 77 | 353 | 5.0 | 11.0 | 0.00 | 0.01 | 0.01 | 61 | 1010.3 |
| 20260905193503 | 77 | 81 | 3.0 | 10.0 | 0.00 | 0.01 | 0.01 | 61 | 1010.3 |
| 20260905193012 | 77 | 359 | 4.0 | 8.0 | 0.00 | 0.01 | 0.01 | 61 | 1010.2 |
| 20260905192510 | 77 | 359 | 2.0 | 4.0 | 0.00 | 0.01 | 0.01 | 62 | 1010.2 |
| 20260905192003 | 76 | 297 | 2.0 | 5.0 | 0.00 | 0.01 | 0.01 | 65 | 1010.2 |
| 20260905191514 | 75 | 300 | 1.0 | 6.0 | 0.00 | 0.01 | 0.01 | 65 | 1010.3 |
| 20260905191008 | 75 | 306 | 2.0 | 6.0 | 0.00 | 0.01 | 0.01 | 66 | 1010.3 |
| 20260905190503 | 74 | 341 | 2.0 | 3.0 | 0.00 | 0.01 | 0.01 | 67 | 1010.4 |
| 20260905190012 | 74 | 309 | 1.0 | 3.0 | 0.00 | 0.01 | 0.01 | 66 | 1010.4 |
| 20260905185504 | 74 | 338 | 0.0 | 5.0 | 0.00 | 0.01 | 0.01 | 67 | 1010.4 |
| 20260905185003 | 74 | 340 | 1.0 | 5.0 | 0.00 | 0.01 | 0.01 | 65 | 1010.5 |
| 20260905184506 | 75 | 333 | 1.0 | 3.0 | 0.00 | 0.01 | 0.01 | 63 | 1010.4 |
| 20260905184003 | 75 | 354 | 2.0 | 4.0 | 0.00 | 0.01 | 0.01 | 64 | 1010.4 |
| 20260905183503 | 75 | 340 | 1.0 | 8.0 | 0.00 | 0.01 | 0.01 | 64 | 1010.3 |
| 20260905183008 | 75 | 345 | 2.0 | 8.0 | 0.00 | 0.01 | 0.01 | 62 | 1010.3 |
| 20260905182504 | 76 | 341 | 2.0 | 5.0 | 0.00 | 0.01 | 0.01 | 61 | 1010.3 |
| 20260905182004 | 76 | 349 | 3.0 | 5.0 | 0.00 | 0.01 | 0.01 | 58 | 1010.4 |
| 20260905181515 | 76 | 327 | 2.0 | 9.0 | 0.00 | 0.01 | 0.01 | 59 | 1010.4 |
| 20260905181004 | 75 | 346 | 4.0 | 9.0 | 0.00 | 0.01 | 0.01 | 61 | 1010.4 |
| 20260905180507 | 76 | 339 | 3.0 | 8.0 | 0.00 | 0.01 | 0.01 | 63 | 1010.4 |
| 20260905180017 | 76 | 309 | 4.0 | 8.0 | 0.00 | 0.01 | 0.01 | 64 | 1010.3 |
| 20260905175508 | 75 | 354 | 3.0 | 7.0 | 0.00 | 0.01 | 0.01 | 64 | 1010.4 |
| 20260905175008 | 75 | 351 | 2.0 | 7.0 | 0.00 | 0.01 | 0.01 | 65 | 1010.4 |
| 20260905174516 | 76 | 360 | 2.0 | 7.0 | 0.00 | 0.01 | 0.01 | 63 | 1010.5 |
| 20260905174008 | 77 | 8 | 2.0 | 6.0 | 0.00 | 0.01 | 0.01 | 60 | 1010.5 |
| 20260905173504 | 77 | 106 | 1.0 | 4.0 | 0.00 | 0.01 | 0.01 | 62 | 1010.4 |
| 20260905173006 | 75 | 260 | 2.0 | 9.0 | 0.00 | 0.01 | 0.01 | 62 | 1010.4 |
| 20260905172503 | 76 | 1 | 4.0 | 9.0 | 0.00 | 0.01 | 0.01 | 61 | 1010.5 |
| 20260905172002 | 76 | 353 | 2.0 | 7.0 | 0.00 | 0.01 | 0.01 | 60 | 1010.3 |
| 20260905171510 | 76 | 146 | 0.0 | 7.0 | 0.00 | 0.01 | 0.01 | 63 | 1010.3 |
| 20260905171004 | 75 | 345 | 2.0 | 6.0 | 0.00 | 0.01 | 0.01 | 63 | 1010.3 |
| 20260905170505 | 74 | 174 | 2.0 | 10.0 | 0.00 | 0.01 | 0.01 | 65 | 1010.3 |
| 20260905170016 | 74 | 67 | 2.0 | 10.0 | 0.00 | 0.01 | 0.01 | 63 | 1010.4 |
| 20260905165508 | 75 | 300 | 3.0 | 6.0 | 0.00 | 0.01 | 0.01 | 62 | 1010.3 |
| 20260905165011 | 75 | 176 | 1.0 | 5.0 | 0.00 | 0.01 | 0.01 | 64 | 1010.3 |
| 20260905164520 | 74 | 297 | 1.0 | 5.0 | 0.00 | 0.01 | 0.01 | 66 | 1010.4 |
| 20260905164013 | 74 | 352 | 3.0 | 9.0 | 0.00 | 0.01 | 0.01 | 65 | 1010.4 |
| 20260905163507 | 75 | 276 | 3.0 | 9.0 | 0.00 | 0.01 | 0.01 | 64 | 1010.4 |
| 20260905163020 | 76 | 355 | 1.0 | 10.0 | 0.00 | 0.01 | 0.01 | 63 | 1010.5 |
| 20260905162511 | 75 | 246 | 4.0 | 10.0 | 0.00 | 0.01 | 0.01 | 65 | 1010.6 |
| 20260905162005 | 75 | 352 | 2.0 | 9.0 | 0.00 | 0.01 | 0.01 | 63 | 1010.6 |
| 20260905161511 | 74 | 354 | 2.0 | 10.0 | 0.00 | 0.01 | 0.01 | 63 | 1010.7 |
| 20260905161006 | 75 | 342 | 3.0 | 10.0 | 0.00 | 0.01 | 0.01 | 65 | 1010.6 |
| 20260905160504 | 75 | 349 | 1.0 | 6.0 | 0.00 | 0.01 | 0.01 | 63 | 1010.7 |
| 20260905160012 | 76 | 2 | 2.0 | 6.0 | 0.00 | 0.01 | 0.01 | 65 | 1010.7 |
| 20260905155506 | 76 | 94 | 2.0 | 8.0 | 0.00 | 0.01 | 0.01 | 64 | 1010.7 |
| 20260905155009 | 75 | 333 | 0.0 | 8.0 | 0.00 | 0.01 | 0.01 | 64 | 1010.9 |
| 20260905154523 | 75 | 323 | 3.0 | 11.0 | 0.00 | 0.01 | 0.01 | 65 | 1010.8 |
| 20260905154010 | 74 | 345 | 3.0 | 11.0 | 0.00 | 0.01 | 0.01 | 67 | 1010.8 |
| 20260905153513 | 74 | 1 | 4.0 | 11.0 | 0.00 | 0.01 | 0.01 | 68 | 1010.8 |
| 20260905153025 | 73 | 350 | 6.0 | 11.0 | 0.00 | 0.01 | 0.01 | 66 | 1010.8 |
| 20260905152512 | 73 | 44 | 5.0 | 11.0 | 0.00 | 0.01 | 0.01 | 66 | 1010.8 |
| 20260905152010 | 73 | 11 | 3.0 | 11.0 | 0.00 | 0.01 | 0.01 | 69 | 1010.9 |
| 20260905151527 | 72 | 354 | 5.0 | 8.0 | 0.00 | 0.01 | 0.01 | 70 | 1010.9 |
| 20260905151012 | 72 | 346 | 3.0 | 7.0 | 0.00 | 0.01 | 0.01 | 71 | 1011.0 |
| 20260905150515 | 71 | 349 | 2.0 | 12.0 | 0.00 | 0.01 | 0.01 | 72 | 1011.0 |
| 20260905150010 | 71 | 342 | 5.0 | 12.0 | 0.00 | 0.01 | 0.01 | 71 | 1011.0 |
| 20260905145507 | 70 | 348 | 3.0 | 10.0 | 0.00 | 0.01 | 0.01 | 75 | 1011.0 |
| 20260905145006 | 70 | 341 | 3.0 | 8.0 | 0.00 | 0.01 | 0.01 | 74 | 1011.1 |
| 20260905144517 | 70 | 1 | 3.0 | 8.0 | 0.00 | 0.01 | 0.01 | 77 | 1011.1 |
| 20260905144006 | 70 | 279 | 4.0 | 8.0 | 0.00 | 0.01 | 0.01 | 77 | 1011.2 |
| 20260905143510 | 69 | 346 | 2.0 | 8.0 | 0.00 | 0.01 | 0.01 | 77 | 1011.2 |
| 20260905143026 | 69 | 360 | 4.0 | 7.0 | 0.00 | 0.01 | 0.01 | 78 | 1011.1 |
| 20260905142509 | 70 | 356 | 3.0 | 7.0 | 0.00 | 0.01 | 0.01 | 77 | 1011.2 |
| 20260905142013 | 70 | 5 | 3.0 | 9.0 | 0.00 | 0.01 | 0.01 | 77 | 1011.2 |
| 20260905141530 | 69 | 1 | 2.0 | 9.0 | 0.00 | 0.01 | 0.01 | 78 | 1011.3 |
| 20260905141012 | 69 | 343 | 3.0 | 7.0 | 0.00 | 0.01 | 0.01 | 78 | 1011.4 |
| 20260905140512 | 69 | 343 | 2.0 | 8.0 | 0.00 | 0.01 | 0.01 | 79 | 1011.4 |
| 20260905140029 | 69 | 306 | 3.0 | 8.0 | 0.00 | 0.01 | 0.01 | 79 | 1011.6 |
| 20260905135513 | 69 | 356 | 4.0 | 7.0 | 0.00 | 0.01 | 0.01 | 79 | 1011.5 |
| 20260905135013 | 68 | 309 | 1.0 | 7.0 | 0.00 | 0.01 | 0.01 | 82 | 1011.5 |
| 20260905134514 | 67 | 360 | 1.0 | 3.0 | 0.00 | 0.01 | 0.01 | 84 | 1011.5 |
| 20260905134008 | 66 | 328 | 1.0 | 3.0 | 0.00 | 0.01 | 0.01 | 86 | 1011.5 |
| 20260905133509 | 65 | 337 | 1.0 | 3.0 | 0.00 | 0.01 | 0.01 | 91 | 1011.6 |
| 20260905133020 | 64 | 8 | 0.0 | 2.0 | 0.00 | 0.01 | 0.01 | 92 | 1011.5 |
| 20260905132510 | 63 | 70 | 0.0 | 2.0 | 0.00 | 0.01 | 0.01 | 93 | 1011.5 |
| 20260905132011 | 63 | 74 | 0.0 | 2.0 | 0.00 | 0.01 | 0.01 | 93 | 1011.5 |
| 20260905131528 | 63 | 101 | 1.0 | 3.0 | 0.00 | 0.01 | 0.01 | 93 | 1011.6 |
| 20260905131014 | 63 | 93 | 1.0 | 3.0 | 0.00 | 0.01 | 0.01 | 93 | 1011.6 |
| 20260905130516 | 63 | 110 | 0.0 | 2.0 | 0.00 | 0.01 | 0.01 | 92 | 1011.6 |
| 20260905130006 | 63 | 111 | 0.0 | 2.0 | 0.00 | 0.01 | 0.01 | 91 | 1011.5 |
| 20260905125504 | 63 | 338 | 0.0 | 1.0 | 0.00 | 0.01 | 0.01 | 91 | 1011.5 |
| 20260905125006 | 63 | 338 | 0.0 | 1.0 | 0.00 | 0.01 | 0.01 | 92 | 1011.4 |
| 20260905124510 | 63 | 338 | 0.0 | 2.0 | 0.00 | 0.01 | 0.01 | 93 | 1011.4 |
| 20260905124006 | 62 | 356 | 0.0 | 2.0 | 0.00 | 0.01 | 0.01 | 94 | 1011.3 |
| 20260905123506 | 62 | 356 | 0.0 | 0.0 | 0.00 | 0.01 | 0.01 | 95 | 1011.3 |
| 20260905123020 | 62 | 356 | 0.0 | 0.0 | 0.00 | 0.01 | 0.01 | 95 | 1011.4 |
| 20260905122513 | 61 | 355 | 0.0 | 0.0 | 0.00 | 0.01 | 0.01 | 96 | 1011.3 |
| 20260905122010 | 61 | 355 | 0.0 | 0.0 | 0.00 | 0.01 | 0.01 | 96 | 1011.2 |
| 20260905121527 | 60 | 355 | 0.0 | 0.0 | 0.00 | 0.01 | 0.01 | 96 | 1011.2 |
| 20260905121003 | 60 | 352 | 0.0 | 2.0 | 0.00 | 0.01 | 0.01 | 96 | 1011.0 |
| 20260905120503 | 60 | 340 | 0.0 | 3.0 | 0.00 | 0.01 | 0.01 | 96 | 1010.9 |
| 20260905120005 | 60 | 339 | 0.0 | 3.0 | 0.00 | 0.01 | 0.01 | 96 | 1010.9 |
| 20260905115502 | 60 | 94 | 1.0 | 3.0 | 0.00 | 0.01 | 0.01 | 96 | 1011.0 |
| 20260905115006 | 61 | 96 | 0.0 | 1.0 | 0.00 | 0.01 | 0.01 | 97 | 1010.9 |
| 20260905114507 | 61 | 94 | 0.0 | 2.0 | 0.00 | 0.01 | 0.01 | 97 | 1010.8 |
| 20260905114003 | 60 | 94 | 0.0 | 2.0 | 0.00 | 0.01 | 0.01 | 97 | 1010.8 |
| 20260905113504 | 59 | 114 | 0.0 | 1.0 | 0.00 | 0.01 | 0.01 | 97 | 1010.8 |
| 20260905113012 | 58 | 101 | 0.0 | 1.0 | 0.00 | 0.01 | 0.01 | 97 | 1010.7 |
| 20260905112505 | 58 | 101 | 0.0 | 2.0 | 0.00 | 0.01 | 0.01 | 97 | 1010.8 |
| 20260905112013 | 57 | 103 | 1.0 | 2.0 | 0.00 | 0.01 | 0.01 | 97 | 1010.9 |
| 20260905111520 | 57 | 105 | 0.0 | 1.0 | 0.00 | 0.01 | 0.01 | 97 | 1010.8 |
| 20260905111011 | 57 | 105 | 0.0 | 1.0 | 0.00 | 0.01 | 0.01 | 97 | 1010.8 |
| 20260905110514 | 56 | 94 | 0.0 | 1.0 | 0.00 | 0.01 | 0.01 | 97 | 1010.7 |
| 20260905110024 | 56 | 94 | 0.0 | 1.0 | 0.00 | 0.01 | 0.01 | 97 | 1010.6 |
| 20260905105504 | 56 | 94 | 0.0 | 1.0 | 0.00 | 0.01 | 0.01 | 97 | 1010.6 |
| 20260905105007 | 56 | 94 | 0.0 | 1.0 | 0.00 | 0.01 | 0.01 | 97 | 1010.6 |
| 20260905104504 | 55 | 94 | 0.0 | 0.0 | 0.00 | 0.01 | 0.01 | 97 | 1010.4 |
| 20260905104003 | 55 | 94 | 0.0 | 0.0 | 0.00 | 0.01 | 0.01 | 97 | 1010.5 |
| 20260905103504 | 56 | 94 | 0.0 | 0.0 | 0.00 | 0.01 | 0.01 | 97 | 1010.6 |
| 20260905103014 | 56 | 94 | 0.0 | 0.0 | 0.00 | 0.01 | 0.01 | 97 | 1010.4 |
| 20260905102507 | 56 | 94 | 0.0 | 0.0 | 0.00 | 0.01 | 0.01 | 97 | 1010.4 |
| 20260905102005 | 56 | 94 | 0.0 | 0.0 | 0.00 | 0.01 | 0.01 | 97 | 1010.4 |
| 20260905101522 | 56 | 94 | 0.0 | 0.0 | 0.00 | 0.01 | 0.01 | 97 | 1010.4 |
| 20260905101013 | 56 | 94 | 0.0 | 0.0 | 0.01 | 0.01 | 0.01 | 97 | 1010.2 |
| 20260905100508 | 56 | 94 | 0.0 | 1.0 | 0.01 | 0.01 | 0.01 | 97 | 1010.2 |
| 20260905100031 | 55 | 94 | 0.0 | 1.0 | 0.01 | 0.01 | 0.01 | 97 | 1010.2 |
| 20260905095512 | 55 | 326 | 0.0 | 0.0 | 0.01 | 0.01 | 0.01 | 97 | 1010.1 |
| 20260905095018 | 55 | 326 | 0.0 | 0.0 | 0.01 | 0.01 | 0.01 | 97 | 1010.1 |
| 20260905094530 | 56 | 326 | 0.0 | 0.0 | 0.01 | 0.01 | 0.01 | 97 | 1010.0 |
| 20260905094003 | 56 | 326 | 0.0 | 0.0 | 0.01 | 0.01 | 0.01 | 97 | 1010.0 |
| 20260905093503 | 56 | 326 | 0.0 | 0.0 | 0.01 | 0.01 | 0.01 | 97 | 1009.9 |
| 20260905093006 | 56 | 326 | 0.0 | 2.0 | 0.01 | 0.01 | 0.01 | 97 | 1009.9 |
| 20260905092502 | 55 | 326 | 0.0 | 2.0 | 0.01 | 0.01 | 0.01 | 97 | 1010.0 |
| 20260905092006 | 55 | 217 | 0.0 | 0.0 | 0.01 | 0.01 | 0.01 | 97 | 1009.9 |
| 20260905091514 | 55 | 217 | 0.0 | 0.0 | 0.01 | 0.01 | 0.01 | 97 | 1009.8 |
| 20260905091007 | 55 | 86 | 0.0 | 0.0 | 0.00 | 0.00 | 0.00 | 97 | 1009.8 |
| 20260905090507 | 55 | 86 | 0.0 | 0.0 | 0.00 | 0.00 | 0.00 | 97 | 1009.8 |
| 20260905090019 | 55 | 86 | 0.0 | 0.0 | 0.00 | 0.00 | 0.00 | 97 | 1009.9 |
| 20260905085511 | 55 | 86 | 0.0 | 0.0 | 0.00 | 0.00 | 0.00 | 97 | 1009.9 |
| 20260905085011 | 56 | 86 | 0.0 | 0.0 | 0.00 | 0.00 | 0.00 | 97 | 1009.9 |
| 20260905084527 | 56 | 86 | 0.0 | 0.0 | 0.00 | 0.00 | 0.00 | 97 | 1009.9 |
| 20260905084014 | 56 | 86 | 0.0 | 0.0 | 0.00 | 0.00 | 0.00 | 97 | 1009.9 |
| 20260905083515 | 56 | 86 | 0.0 | 0.0 | 0.00 | 0.00 | 0.00 | 97 | 1010.0 |
| 20260905083030 | 56 | 86 | 0.0 | 0.0 | 0.00 | 0.00 | 0.00 | 97 | 1010.0 |
| 20260905082516 | 56 | 86 | 0.0 | 1.0 | 0.00 | 0.00 | 0.00 | 97 | 1009.9 |
| 20260905082004 | 56 | 87 | 0.0 | 1.0 | 0.00 | 0.00 | 0.00 | 97 | 1009.8 |
| 20260905081513 | 56 | 86 | 0.0 | 0.0 | 0.00 | 0.00 | 0.00 | 97 | 1009.9 |
| 20260905081004 | 56 | 86 | 0.0 | 0.0 | 0.00 | 0.00 | 0.00 | 97 | 1009.9 |
| 20260905080505 | 56 | 86 | 0.0 | 0.0 | 0.00 | 0.00 | 0.00 | 97 | 1009.8 |
| 20260905080031 | 57 | 86 | 0.0 | 0.0 | 0.00 | 0.00 | 0.00 | 97 | 1009.9 |
| 20260905075509 | 57 | 86 | 0.0 | 0.0 | 0.00 | 0.00 | 0.00 | 97 | 1009.9 |
| 20260905075008 | 57 | 86 | 0.0 | 0.0 | 0.00 | 0.00 | 0.00 | 97 | 1009.9 |
| 20260905074524 | 57 | 86 | 0.0 | 0.0 | 0.00 | 0.00 | 0.00 | 97 | 1009.9 |
| 20260905074013 | 57 | 86 | 0.0 | 0.0 | 0.00 | 0.00 | 0.00 | 97 | 1009.9 |
| 20260905073510 | 57 | 86 | 0.0 | 0.0 | 0.00 | 0.00 | 0.00 | 97 | 1009.9 |
| 20260905073033 | 57 | 86 | 0.0 | 0.0 | 0.00 | 0.00 | 0.00 | 97 | 1010.0 |
| 20260905072514 | 57 | 86 | 0.0 | 1.0 | 0.00 | 0.00 | 0.00 | 97 | 1010.0 |
| 20260905072016 | 57 | 86 | 0.0 | 1.0 | 0.00 | 0.00 | 0.00 | 96 | 1010.0 |
| 20260905071528 | 57 | 229 | 0.0 | 0.0 | 0.00 | 0.00 | 0.00 | 97 | 1010.0 |
| 20260905071015 | 57 | 229 | 0.0 | 0.0 | 0.00 | 0.00 | 0.00 | 97 | 1010.1 |
| 20260905070504 | 57 | 229 | 0.0 | 2.0 | 0.00 | 0.00 | 0.00 | 97 | 1010.1 |
| 20260905070026 | 57 | 229 | 0.0 | 2.0 | 0.00 | 0.00 | 0.00 | 96 | 1010.1 |
| 20260905065507 | 57 | 197 | 0.0 | 2.0 | 0.00 | 0.00 | 0.00 | 96 | 1010.2 |
| 20260905065004 | 58 | 297 | 0.0 | 0.0 | 0.00 | 0.00 | 0.00 | 97 | 1010.3 |
| 20260905064516 | 58 | 262 | 0.0 | 0.0 | 0.00 | 0.00 | 0.00 | 97 | 1010.3 |
| 20260905064009 | 58 | 262 | 0.0 | 0.0 | 0.00 | 0.00 | 0.00 | 97 | 1010.2 |
| 20260905063510 | 58 | 293 | 0.0 | 0.0 | 0.00 | 0.00 | 0.00 | 97 | 1010.3 |
| 20260905063028 | 58 | 293 | 0.0 | 0.0 | 0.00 | 0.00 | 0.00 | 97 | 1010.3 |
| 20260905062514 | 58 | 293 | 0.0 | 0.0 | 0.00 | 0.00 | 0.00 | 97 | 1010.3 |
| 20260905062014 | 58 | 250 | 0.0 | 0.0 | 0.00 | 0.00 | 0.00 | 97 | 1010.3 |
| 20260905061532 | 58 | 250 | 0.0 | 0.0 | 0.00 | 0.00 | 0.00 | 97 | 1010.3 |
| 20260905061014 | 58 | 250 | 0.0 | 0.0 | 0.00 | 0.00 | 0.00 | 97 | 1010.3 |
| 20260905060516 | 58 | 344 | 0.0 | 0.0 | 0.00 | 0.00 | 0.00 | 96 | 1010.4 |
| 20260905060035 | 58 | 344 | 0.0 | 0.0 | 0.00 | 0.00 | 0.00 | 96 | 1010.3 |
| 20260905055506 | 58 | 344 | 0.0 | 0.0 | 0.00 | 0.00 | 0.00 | 96 | 1010.3 |
| 20260905055005 | 58 | 345 | 0.0 | 0.0 | 0.00 | 0.00 | 0.00 | 96 | 1010.4 |
| 20260905054533 | 59 | 344 | 0.0 | 0.0 | 0.00 | 0.00 | 0.00 | 96 | 1010.4 |
| 20260905054008 | 59 | 344 | 0.0 | 0.0 | 0.00 | 0.00 | 0.00 | 96 | 1010.4 |
| 20260905053509 | 59 | 270 | 0.0 | 0.0 | 0.00 | 0.00 | 0.00 | 96 | 1010.5 |
| 20260905053003 | 59 | 270 | 0.0 | 0.0 | 0.00 | 0.00 | 0.00 | 96 | 1010.6 |
| 20260905052502 | 59 | 347 | 0.0 | 0.0 | 0.00 | 0.00 | 0.00 | 96 | 1010.6 |
| 20260905052004 | 59 | 347 | 0.0 | 0.0 | 0.00 | 0.00 | 0.00 | 96 | 1010.6 |
| 20260905051505 | 59 | 347 | 0.0 | 0.0 | 0.00 | 0.00 | 0.00 | 96 | 1010.7 |
| 20260905051004 | 59 | 347 | 0.0 | 0.0 | 0.00 | 0.00 | 0.00 | 96 | 1010.8 |
| 20260905050506 | 59 | 347 | 0.0 | 0.0 | 0.00 | 0.00 | 0.00 | 96 | 1010.9 |
| 20260905050006 | 59 | 347 | 0.0 | 0.0 | 0.00 | 0.00 | 0.00 | 96 | 1010.9 |
| 20260905045503 | 59 | 347 | 0.0 | 0.0 | 0.00 | 0.00 | 0.00 | 96 | 1010.9 |
| 20260905045006 | 59 | 346 | 0.0 | 0.0 | 0.00 | 0.00 | 0.00 | 96 | 1010.9 |
| 20260905044518 | 59 | 351 | 0.0 | 0.0 | 0.00 | 0.00 | 0.00 | 96 | 1010.9 |
| 20260905044006 | 59 | 351 | 0.0 | 0.0 | 0.00 | 0.00 | 0.00 | 96 | 1010.9 |
| 20260905043506 | 59 | 353 | 0.0 | 0.0 | 0.00 | 0.00 | 0.00 | 95 | 1010.8 |
| 20260905043018 | 59 | 353 | 0.0 | 0.0 | 0.00 | 0.00 | 0.00 | 96 | 1010.9 |
| 20260905042510 | 60 | 353 | 0.0 | 0.0 | 0.00 | 0.00 | 0.00 | 96 | 1010.9 |
| 20260905042010 | 60 | 353 | 0.0 | 0.0 | 0.00 | 0.00 | 0.00 | 96 | 1010.7 |
| 20260905041526 | 60 | 352 | 0.0 | 0.0 | 0.00 | 0.00 | 0.00 | 96 | 1010.6 |
| 20260905041004 | 60 | 352 | 0.0 | 0.0 | 0.00 | 0.00 | 0.00 | 96 | 1010.6 |
| 20260905040504 | 60 | 352 | 0.0 | 0.0 | 0.00 | 0.00 | 0.00 | 95 | 1010.7 |
| 20260905040005 | 60 | 352 | 0.0 | 0.0 | 0.00 | 0.00 | 0.00 | 95 | 1010.7 |
| 20260905035504 | 60 | 352 | 0.0 | 0.0 | 0.00 | 0.00 | 0.00 | 95 | 1010.7 |
| 20260905035004 | 60 | 352 | 0.0 | 0.0 | 0.00 | 0.00 | 0.00 | 95 | 1010.8 |
| 20260905034506 | 60 | 352 | 0.0 | 0.0 | 0.00 | 0.00 | 0.00 | 95 | 1010.8 |
| 20260905034004 | 61 | 352 | 0.0 | 0.0 | 0.00 | 0.00 | 0.00 | 95 | 1010.9 |
| 20260905033507 | 61 | 352 | 0.0 | 0.0 | 0.00 | 0.00 | 0.00 | 95 | 1010.8 |
| 20260905033023 | 61 | 352 | 0.0 | 0.0 | 0.00 | 0.00 | 0.00 | 94 | 1010.9 |
| 20260905032508 | 61 | 352 | 0.0 | 0.0 | 0.00 | 0.00 | 0.00 | 94 | 1010.8 |
| 20260905032011 | 61 | 352 | 0.0 | 0.0 | 0.00 | 0.00 | 0.00 | 94 | 1010.7 |
| 20260905031522 | 61 | 352 | 0.0 | 0.0 | 0.00 | 0.00 | 0.00 | 94 | 1010.7 |
| 20260905031009 | 61 | 352 | 0.0 | 0.0 | 0.00 | 0.00 | 0.00 | 94 | 1010.6 |
| 20260905030510 | 61 | 352 | 0.0 | 0.0 | 0.00 | 0.00 | 0.00 | 94 | 1010.6 |
| 20260905030032 | 61 | 352 | 0.0 | 0.0 | 0.00 | 0.00 | 0.00 | 94 | 1010.6 |
| 20260905025503 | 61 | 352 | 0.0 | 0.0 | 0.00 | 0.00 | 0.00 | 93 | 1010.6 |
| 20260905025006 | 62 | 352 | 0.0 | 0.0 | 0.00 | 0.00 | 0.00 | 93 | 1010.4 |
| 20260905024504 | 62 | 352 | 0.0 | 0.0 | 0.00 | 0.00 | 0.00 | 93 | 1010.4 |
| 20260905024004 | 62 | 352 | 0.0 | 0.0 | 0.00 | 0.00 | 0.00 | 93 | 1010.4 |
| 20260905023504 | 62 | 221 | 0.0 | 0.0 | 0.00 | 0.00 | 0.00 | 93 | 1010.4 |
| 20260905023012 | 62 | 221 | 0.0 | 0.0 | 0.00 | 0.00 | 0.00 | 93 | 1010.4 |
| 20260905022506 | 62 | 220 | 0.0 | 0.0 | 0.00 | 0.00 | 0.00 | 93 | 1010.4 |
| 20260905022007 | 63 | 210 | 0.0 | 0.0 | 0.00 | 0.00 | 0.00 | 93 | 1010.5 |
| 20260905021516 | 62 | 210 | 0.0 | 0.0 | 0.00 | 0.00 | 0.00 | 93 | 1010.6 |
| 20260905021008 | 62 | 117 | 0.0 | 0.0 | 0.00 | 0.00 | 0.00 | 92 | 1010.7 |
| 20260905020507 | 63 | 63 | 0.0 | 0.0 | 0.00 | 0.00 | 0.00 | 92 | 1010.8 |
| 20260905020027 | 63 | 62 | 0.0 | 0.0 | 0.00 | 0.00 | 0.00 | 92 | 1010.7 |
| 20260905015511 | 63 | 62 | 0.0 | 0.0 | 0.00 | 0.00 | 0.00 | 92 | 1010.8 |
| 20260905015016 | 63 | 62 | 0.0 | 0.0 | 0.00 | 0.00 | 0.00 | 91 | 1010.9 |
| 20260905014530 | 63 | 67 | 0.0 | 0.0 | 0.00 | 0.00 | 0.00 | 91 | 1010.9 |
| 20260905014004 | 63 | 67 | 0.0 | 0.0 | 0.00 | 0.00 | 0.00 | 91 | 1010.9 |
| 20260905013503 | 63 | 67 | 0.0 | 0.0 | 0.00 | 0.00 | 0.00 | 91 | 1010.9 |
| 20260905013008 | 63 | 67 | 0.0 | 0.0 | 0.00 | 0.00 | 0.00 | 90 | 1011.0 |
| 20260905012504 | 64 | 67 | 0.0 | 0.0 | 0.00 | 0.00 | 0.00 | 90 | 1010.9 |
| 20260905012004 | 64 | 60 | 0.0 | 0.0 | 0.00 | 0.00 | 0.00 | 90 | 1010.9 |
| 20260905011518 | 64 | 59 | 0.0 | 0.0 | 0.00 | 0.00 | 0.00 | 90 | 1010.9 |
| 20260905011007 | 64 | 60 | 0.0 | 0.0 | 0.00 | 0.00 | 0.00 | 90 | 1010.9 |
| 20260905010508 | 64 | 1 | 0.0 | 0.0 | 0.00 | 0.00 | 0.00 | 90 | 1010.8 |
| 20260905010018 | 64 | 355 | 0.0 | 0.0 | 0.00 | 0.00 | 0.00 | 89 | 1010.8 |
| 20260905005508 | 65 | 355 | 0.0 | 0.0 | 0.00 | 0.00 | 0.00 | 89 | 1010.8 |
| 20260905005012 | 65 | 355 | 0.0 | 0.0 | 0.00 | 0.00 | 0.00 | 89 | 1010.9 |
| 20260905004527 | 65 | 342 | 0.0 | 0.0 | 0.00 | 0.00 | 0.00 | 89 | 1010.8 |
| 20260905004017 | 65 | 341 | 0.0 | 0.0 | 0.00 | 0.00 | 0.00 | 89 | 1010.6 |
| 20260905003514 | 65 | 342 | 0.0 | 0.0 | 0.00 | 0.00 | 0.00 | 89 | 1010.8 |
| 20260905003031 | 65 | 342 | 0.0 | 0.0 | 0.00 | 0.00 | 0.00 | 89 | 1010.7 |
| 20260905002514 | 66 | 342 | 0.0 | 0.0 | 0.00 | 0.00 | 0.00 | 88 | 1010.7 |
| 20260905002006 | 66 | 342 | 0.0 | 0.0 | 0.00 | 0.00 | 0.00 | 88 | 1010.7 |
| 20260905001509 | 66 | 341 | 0.0 | 0.0 | 0.00 | 0.00 | 0.00 | 88 | 1010.7 |
| 20260905001004 | 66 | 342 | 0.0 | 0.0 | 0.00 | 0.00 | 0.00 | 87 | 1010.6 |
| 20260905000507 | 67 | 342 | 0.0 | 0.0 | 0.00 | 0.00 | 0.00 | 87 | 1010.5 |
| 20260905000014 | 67 | 342 | 0.0 | 0.0 | 0.00 | 0.00 | 0.00 | 87 | 1010.5 |
| 20260904235509 | 67 | 342 | 0.0 | 0.0 | 0.00 | 0.00 | 0.00 | 87 | 1010.4 |
| 20260904235010 | 67 | 342 | 0.0 | 0.0 | 0.00 | 0.00 | 0.00 | 86 | 1010.4 |
| 20260904234532 | 67 | 341 | 0.0 | 0.0 | 0.00 | 0.00 | 0.00 | 86 | 1010.4 |
| 20260904234015 | 68 | 342 | 0.0 | 0.0 | 0.00 | 0.00 | 0.00 | 85 | 1010.4 |
| 20260904233512 | 68 | 335 | 0.0 | 0.0 | 0.00 | 0.00 | 0.00 | 85 | 1010.4 |
| 20260904233025 | 68 | 332 | 0.0 | 0.0 | 0.00 | 0.00 | 0.00 | 84 | 1010.4 |
| 20260904232512 | 69 | 332 | 0.0 | 0.0 | 0.00 | 0.00 | 0.00 | 84 | 1010.3 |
| 20260904232015 | 69 | 333 | 0.0 | 0.0 | 0.00 | 0.00 | 0.00 | 83 | 1010.3 |
| 20260904231532 | 70 | 333 | 0.0 | 0.0 | 0.00 | 0.00 | 0.00 | 82 | 1010.3 |
| 20260904231017 | 71 | 335 | 0.0 | 0.0 | 0.00 | 0.00 | 0.00 | 81 | 1010.1 |
| 20260904230505 | 71 | 335 | 0.0 | 0.0 | 0.00 | 0.00 | 0.00 | 80 | 1010.1 |
| 20260904230011 | 72 | 332 | 0.0 | 1.0 | 0.00 | 0.00 | 0.00 | 79 | 1010.1 |
| 20260904225506 | 73 | 333 | 0.0 | 1.0 | 0.00 | 0.00 | 0.00 | 76 | 1010.1 |
| 20260904225008 | 74 | 4 | 0.0 | 0.0 | 0.00 | 0.00 | 0.00 | 76 | 1010.0 |
| 20260904224518 | 74 | 4 | 0.0 | 0.0 | 0.00 | 0.00 | 0.00 | 75 | 1009.9 |
| 20260904224011 | 74 | 4 | 0.0 | 1.0 | 0.00 | 0.00 | 0.00 | 73 | 1009.8 |
| 20260904223510 | 75 | 4 | 0.0 | 1.0 | 0.00 | 0.00 | 0.00 | 75 | 1009.9 |
| 20260904223024 | 75 | 4 | 0.0 | 1.0 | 0.00 | 0.00 | 0.00 | 74 | 1010.0 |
| 20260904222514 | 76 | 4 | 0.0 | 3.0 | 0.00 | 0.00 | 0.00 | 76 | 1009.9 |
| 20260904222015 | 76 | 4 | 0.0 | 3.0 | 0.00 | 0.00 | 0.00 | 71 | 1009.8 |
| 20260904221533 | 76 | 349 | 0.0 | 4.0 | 0.00 | 0.00 | 0.00 | 74 | 1009.6 |
| 20260904221016 | 76 | 351 | 0.0 | 4.0 | 0.00 | 0.00 | 0.00 | 71 | 1009.6 |
| 20260904220516 | 75 | 350 | 1.0 | 4.0 | 0.00 | 0.00 | 0.00 | 74 | 1009.7 |
| 20260904220034 | 76 | 354 | 0.0 | 1.0 | 0.00 | 0.00 | 0.00 | 71 | 1009.7 |
| 20260904215515 | 76 | 354 | 0.0 | 3.0 | 0.00 | 0.00 | 0.00 | 72 | 1009.7 |
| 20260904215006 | 77 | 354 | 0.0 | 3.0 | 0.00 | 0.00 | 0.00 | 68 | 1009.7 |
| 20260904214515 | 77 | 326 | 0.0 | 3.0 | 0.00 | 0.00 | 0.00 | 66 | 1009.7 |